Regional Weather Roundup
Issued by NWS

Home | Current Version | Previous Version | Graphics & Text | Print | Product List | Glossary On
Versions: 1 2 3 4 5 6 7 8 9 10 11 12 13 14 15 16 17 18 19 20 21 22 23 24 25 26 27 28 29 30 31 32 33 34 35 36 37 38 39 40 41 42 43 44 45 46 47 48 49 50
000
ASUS44 KMEG 172010
RWRTN
TENNESSEE HOURLY STATE WEATHER ROUNDUP
NATIONAL WEATHER SERVICE MEMPHIS TN
300 PM CDT THU APR 17 2014

TNZ002-004-019-021-049-052-054-088>092-172100-
WEST TENNESSEE

CITY           SKY/WX    TMP DP  RH WIND       PRES   REMARKS
MEMPHIS INTL   PTSUNNY   70  41  34 S7        30.23F
NWS MEMPHIS      N/A     71 N/A N/A MISG        N/A
JACKSON        MOSUNNY   69  37  30 SE8G17    30.25F
DYERSBURG      SUNNY     68  39  34 SW5       30.26S
UNION CITY     SUNNY     64  39  39 S5        30.24F
PARIS          SUNNY     66  36  33 S7        30.25
LEXINGTON      SUNNY     66  34  30 SE7       30.24F
SAVANNAH       MOSUNNY   67  37  33 CALM      30.27R
$$

TNZ008-025-027-028-033-062-065-066-172100-
NORTH MIDDLE TENNESSEE

CITY           SKY/WX    TMP DP  RH WIND       PRES   REMARKS
NASHVILLE      PTSUNNY   67  31  26 E8        30.28F
DICKSON        SUNNY     64  30  27 SE7       30.26F
PORTLAND       SUNNY     64  32  29 VRB6      30.27F
CLARKSVILLE    SUNNY     66  36  32 E6        30.26F
SMYRNA         SUNNY     66  35  31 SW5       30.28F
MURFREESBORO   SUNNY     67  33  28 VRB7      30.27F
COOKEVILLE     SUNNY     66  34  30 S6        30.28F
LIVINGSTON     SUNNY     65  26  23 CALM      30.29
GALLATIN       SUNNY     66  34  30 SE3       30.29F
CROSSVILLE     SUNNY     61  24  24 S10       30.31F
$$

TNZ061-075-076-078-094-096-097-172100-
SOUTH MIDDLE TENNESSEE

CITY           SKY/WX    TMP DP  RH WIND       PRES   REMARKS
LEWISBURG      SUNNY     66  35  31 E10       30.27F
FAYETTEVILLE   MOSUNNY   65  38  36 SE10      30.28F
TULLAHOMA      SUNNY     64  34  32 SE9       30.28F
WINCHESTER     SUNNY     66  39  37 S8        30.28F
MCMINNVILLE    SUNNY     66  34  30 E9        30.28F
COLUMBIA       SUNNY     66  45  45 E9        30.26F
SHELBYVILLE    SUNNY     66  37  34 S6        30.29F
$$

TNZ017-018-042-046-047-172100-
NORTHEAST TENNESSEE

CITY           SKY/WX    TMP DP  RH WIND       PRES   REMARKS
TRI CITIES     SUNNY     68  14  12 CALM      30.33F
ELIZABETHTON   CLEAR     66  27  22 E6G13     30.32F HAZE
$$

TNZ012-013-036-069-073-074-172100-
CENTRAL EAST TENNESSEE

CITY           SKY/WX    TMP DP  RH WIND       PRES   REMARKS
KNOXVILLE      MOSUNNY   64  32  30 VRB3      30.31F
OAK RIDGE      SUNNY     67  29  24 CALM      30.32F
$$

TNZ083-085-099-172100-
SOUTHEAST TENNESSEE

CITY           SKY/WX    TMP DP  RH WIND       PRES   REMARKS
CHATTANOOGA    PTSUNNY   65  34  31 S9G18     30.30F
$$

SKY/WX REPORTED AS FAIR MEANS FEW OR NO CLOUDS BELOW
12 THOUSAND FEET.




USA.gov is the U.S. government's official web portal to all federal, state and local government web resources and services.